Tracking 31032 objects as of 14-Jul-2025
HD Live streaming from Space Station
objects crossing your sky now

CZ-6A DEB

Track CZ-6A DEB now!
10-day predictions


NORAD ID: 54623
Int'l Code: 2022-151NZ
Perigee: 829.1 km
Apogee: 890.1 km
Inclination: 98.8 °
Period: 102.0 minutes
Semi major axis: 7230 km
RCS: Unknown
Launch date: November 11, 2022
Source: People's Republic of China (PRC)
Launch site: Taiyaun Space Center, China (TSC)

Note: This is SATELLITE DEBRIS
Your satellite tracking list
Your tracking list is empty




NASA's NSSDC Master Catalog

Two Line Element Set (TLE):
1 54623U 22151NZ  25194.45648387  .00000487  00000-0  28731-3 0  9990
2 54623  98.8372 198.6370 0042216 210.0359 149.8390 14.12029359136086
Source of the keplerian elements: AFSPC